This demonstration page uses our WeatherBlox Daily Observations layout. Learn more.

Left ArrowRight Arrow

Hourly Observations for June 10, 2021

Temp ( °F °C ) Dew Point ( °F °C ) Humidity (%) Winds ( mph kmh ) Pressure ( in mb ) Visibility ( mi km ) Precip ( " mm )
12:59 am 00:59 Cloudy 74 23.3 71 21.7 91 91 WSW 3 6 30.02 1017 10 16 0.00 0.00
1:59 am 01:59 Cloudy 74 23.3 70 21.1 88 88 WSW 6 9 30.00 1016 10 16 0.00 0.00
2:59 am 02:59 Cloudy 74 23.3 71 21.7 91 91 W 5 7 30.00 1016 9 14 0.00 0.00
3:59 am 03:59 Cloudy 74 23.3 70 21.1 88 88 W 3 6 29.98 1015 10 16 0.00 0.00
4:59 am 04:59 Cloudy 73 22.8 70 21.1 90 90 W 3 6 29.98 1015 9 14 0.00 0.00
5:59 am 05:59 Mostly Cloudy 74 23.3 69 20.6 85 85 W 5 7 29.99 1016 10 16 0.00 0.00
6:59 am 06:59 Mostly Cloudy 75 23.9 69 20.6 82 82 NNW 5 7 30.00 1016 10 16 0.00 0.00
7:59 am 07:59 Mostly Cloudy 76 24.4 69 20.6 79 79 VRB 7 11 30.01 1016 10 16 0.00 0.00
8:59 am 08:59 Mostly Cloudy 76 24.4 70 21.1 82 82 W 6 9 30.00 1016 10 16 0.00 0.00
9:59 am 09:59 Mostly Cloudy 79 26.1 71 21.7 77 77 WNW 7 11 30.00 1016 10 16 0.00 0.00
10:59 am 10:59 Mostly Cloudy 80 26.7 70 21.1 71 71 W 5 7 30.00 1016 10 16 0.00 0.00
11:59 am 11:59 Cloudy 80 26.7 70 21.1 71 71 W 5 7 30.00 1016 10 16 0.00 0.00
12:59 pm 12:59 Cloudy 83 28.3 70 21.1 65 65 W 6 9 29.98 1015 10 16 0.00 0.00
1:59 pm 13:59 Cloudy 84 28.9 71 21.7 65 65 W 6 9 29.96 1015 10 16 0.00 0.00
2:59 pm 14:59 Mostly Cloudy 84 28.9 71 21.7 65 65 VRB 3 6 29.93 1014 10 16 0.00 0.00
3:59 pm 15:59 Mostly Cloudy 86 30 72 22.2 63 63 ENE 9 15 29.92 1013 10 16 0.00 0.00
4:59 pm 16:59 Mostly Cloudy 84 28.9 71 21.7 65 65 E 10 17 29.93 1014 10 16 0.00 0.00
5:50 pm 17:50 Mostly Cloudy with Thunderstorms 81 27.2 69 20.6 67 67 SE 6 9 29.91 1013 5 8 0.00 0.00
5:59 pm 17:59 Mostly Cloudy with Thunderstorms 80 26.7 69 20.6 69 69 SE 7 11 29.90 1013 10 16 0.00 0.00
6:59 pm 18:59 Cloudy with Thunderstorms 76 24.4 69 20.6 79 79 SSE 8 13 29.93 1014 10 16 0.00 0.00
7:59 pm 19:59 Mostly Cloudy with Thunderstorms 73 22.8 70 21.1 90 90 SSW 7 11 29.94 1014 7 11 0.00 0.00
8:59 pm 20:59 Cloudy with Thunderstorms 73 22.8 69 20.6 87 87 SW 3 6 29.94 1014 4 6 0.00 0.00
9:28 pm 21:28 Cloudy with Light Rain 73 22.8 70 21.1 90 90 Calm 29.96 1015 4 6 0.00 0.00
9:59 pm 21:59 Cloudy with Light Rain 73 22.8 70 21.1 90 90 SSW 3 6 29.95 1014 4 6 0.00 0.00
10:59 pm 22:59 Cloudy 73 22.8 70 21.1 90 90 SSE 3 6 29.94 1014 8 13 0.00 0.00
11:59 pm 23:59 Cloudy with Mist and Fog 73 22.8 71 21.7 94 94 Calm 29.94 1014 6 10 0.00 0.00

Powered by AerisWeather